Overview Statistics Trail Chart Weather Telemetry Raw packets
 

This is the latest recevied weather packets stored in our database for station/object NR6G-12. If no packets are shown the sender has not sent any weather packets the latest 10 day(s).

<< 64 65 66 67 68 69 70 >>
Time Temp. Humidity Pressure Rain* Wind** Luminosity Snow
1788106522 20.56° C 53% 1018 hPa 0 mm - - -
1788106151 20.56° C 53% 1018 hPa 0 mm - - -
1788105800 20° C 54% 1018.1 hPa 0 mm - - -
1788105431 19.44° C 54% 1018.1 hPa 0 mm - - -
1788105071 19.44° C 55% 1018.1 hPa 0 mm - - -
1788104711 19.44° C 56% 1018.2 hPa 0 mm - - -
1788104351 19.44° C 56% 1018.2 hPa 0 mm - - -
1788103991 19.44° C 56% 1018.2 hPa 0 mm - - -
1788103631 18.89° C 56% 1018.2 hPa 0 mm - - -
1788103271 18.89° C 56% 1018.2 hPa 0 mm - - -
1788102911 18.89° C 56% 1018.3 hPa 0 mm - - -
1788102551 19.44° C 55% 1018.3 hPa 0 mm - - -
1788102191 19.44° C 52% 1018.3 hPa 0 mm - - -
1788101831 19.44° C 51% 1018.3 hPa 0 mm - - -
1788101471 19.44° C 51% 1018.3 hPa 0 mm - - -
1788101112 19.44° C 51% 1018.4 hPa 0 mm - - -
1788100751 18.89° C 54% 1018.2 hPa 0 mm - - -
1788100391 18.33° C 54% 1018.3 hPa 0 mm - - -
1788100031 17.78° C 55% 1018.3 hPa 0 mm - - -
1788099671 17.78° C 57% 1018.2 hPa 0 mm - - -
1788099311 17.22° C 57% 1018.2 hPa 0 mm - - -
1788098951 17.22° C 57% 1018.2 hPa 0 mm - - -
1788098591 17.22° C 60% 1018.1 hPa 0 mm - - -
1788098231 17.22° C 60% 1018.1 hPa 0 mm - - -
1788097871 17.22° C 58% 1018.1 hPa 0 mm - - -

* Rain latest hour (hover to see other rain measurements)
** Current wind speed in m/s (hover to see current wind gust speed)